Regional Weather Roundup
Issued by NWS

Home | Current Version | Previous Version | Text Only | Print | Product List | Glossary Off
Versions: 1 2 3 4 5 6 7 8 9 10 11 12 13 14 15 16 17 18 19 20 21 22 23 24 25 26 27 28 29 30 31 32 33 34 35 36 37 38 39 40 41 42 43 44 45 46 47 48 49 50

000
ASUS43 KLSX 242157
RWRMO

WEATHER SUMMARY FOR MISSOURI
NATIONAL WEATHER SERVICE SPRINGFIELD MO
400 PM CST SAT FEB 24 2018

NOTE: "FAIR" INDICATES FEW OR NO CLOUDS BELOW 12,000 FEET WITH NO
       SIGNIFICANT WEATHER AND/OR OBSTRUCTIONS TO VISIBILITY.
       CURRENT SKY AND/OR WEATHER CONDITIONS ARE NOT AVAILABLE FOR
       CHILLICOTHE AND FARMINGTON.

MOZ001>031-035>038-043-044-053-054-242300-
...NORTHERN AND WESTERN MISSOURI...

CITY           SKY/WX    TMP DP  RH WIND       PRES   REMARKS
KANSAS CTY INT DRIZZLE   38  37  97 W10       29.69R FOG
LEE`S SUMMIT   LGT RAIN  41  41 100 W10       29.69R FOG
ST JOSEPH      CLOUDY    34  34 100 NW9       29.72R FOG     WCI  27
CHILLICOTHE      N/A     41  41 100 CALM      29.66F
KIRKSVILLE     FOG       40  40 100 SE13      29.63F VSB 3/4

$$
MOZ066>068-077>081-088>096-101>105-242300-
...SOUTHWEST MISSOURI...

CITY           SKY/WX    TMP DP  RH WIND       PRES   REMARKS
SPRINGFIELD    CLOUDY    56  55  97 SW7       29.65S
JOPLIN         CLOUDY    46  46 100 W15G22    29.74R
BRANSON        PTSUNNY   59  59 100 SW3       29.67R

$$
MOZ032>034-039>042-045>050-055>058-069>072-242300-
...CENTRAL MISSOURI...

CITY           SKY/WX    TMP DP  RH WIND       PRES   REMARKS
COLUMBIA       NOT AVBL
JEFFERSON CITY CLOUDY    50  48  93 SE6       29.63S
ROLLA          CLOUDY    51  51 100 E7        29.63F FOG
SEDALIA        CLOUDY    50  50 100 SW7       29.65R
WARRENSBURG    CLOUDY    45  45 100 W10       29.66R

$$
MOZ051-052-059>065-242300-
...EAST CENTRAL MISSOURI...

CITY           SKY/WX    TMP DP  RH WIND       PRES   REMARKS
ST LOUIS INTL  RAIN      49  49 100 SE9       29.75F FOG
ST CHARLES     LGT RAIN  46  46 100 E8        29.74F FOG

$$
MOZ072>076-082>087-097>100-106>115-242300-
...SOUTH CENTRAL AND SOUTHEAST MISSOURI...

CITY           SKY/WX    TMP DP  RH WIND       PRES   REMARKS
CAPE GIRARDEAU HVY RAIN  62  58  86 W13G25    29.71F VSB 1/2
POPLAR BLUFF   LGT RAIN  57  57 100 MISG      29.69F
WEST PLAINS    LGT RAIN  54  53  97 CALM      29.68F

$$


USA.gov is the U.S. government's official web portal to all federal, state and local government web resources and services.